Regional Weather Roundup
Issued by NWS

Home | Current Version | Previous Version | Graphics & Text | Print | Product List | Glossary Off
Versions: 1 2 3 4 5 6 7 8 9 10 11 12 13 14 15 16 17 18 19 20 21 22 23 24 25 26 27 28 29 30 31 32 33 34 35 36 37 38 39 40 41 42 43 44 45 46 47 48 49 50

000
ASUS44 KFWD 212315
RWRTX
NORTH TEXAS HOURLY WEATHER ROUNDUP
NATIONAL WEATHER SERVICE FORT WORTH TX
600 PM CDT THU AUG 21 2014

NOTE: "FAIR" INDICATES FEW OR NO CLOUDS BELOW 12,000 FEET WITH NO
SIGNIFICANT WEATHER AND/OR OBSTRUCTIONS TO VISIBILITY.

TXZ118-119-220000-
DALLAS/FORT WORTH METROPLEX

CITY           SKY/WX    TMP DP  RH WIND       PRES   REMARKS
DFW AIRPORT    MOSUNNY   98  64  32 S16G22    29.93F HX 100
DALLAS LOVE    MOSUNNY   98  62  30 S18G24    29.94S HX  99
FTW MEACHAM    SUNNY    100  62  28 S14       29.92F HX 101
DAL-EXECUTIVE  SUNNY     99  60  27 S13G21    29.95R HX  99
FTW-ALLIANCE   MOSUNNY   98  63  31 S10G21    29.92S HX 100
FTW-NAS-JRB    SUNNY    102  58  23 S18       29.97S HX 102
FTW-SPINKS     SUNNY     99  61  28 S9G16     29.95S HX  99
ARLINGTON      SUNNY     98  60  28 S12       29.94S HX  98
ADDISON        MOSUNNY   97  61  30 S13G23    29.96R HX  97
MESQUITE       SUNNY     99  55  23 S10G23    29.95F HX  97
LANCASTER      SUNNY     98  58  25 S14G21    29.96S HX  97
$$

TXZ091>094-102>105-117-120-121-131>134-220000-
NORTH CENTRAL TEXAS

CITY           SKY/WX    TMP DP  RH WIND       PRES   REMARKS
SHRMAN/DENISON SUNNY     96  65  36 S15       29.96S HX  98
GAINESVILLE    SUNNY     92  70  48 SE13G21   29.96S HX  98
BOWIE          MOSUNNY   86  78  76 SW6       29.93F HX  97
BRIDGEPORT     MOSUNNY   99  58  26 S14G23    29.93F HX  98
DECATUR        MOSUNNY   95  63  33 SE16G23   29.94F HX  96
DENTON         SUNNY     97  64  33 S20       29.93S HX  99
MCKINNEY       SUNNY     96  64  34 S16       29.95R HX  98
GREENVILLE     SUNNY     97  59  28 S10G18    29.97S HX  96
ROCKWALL       SUNNY     98  64  32 S15       29.95S HX  99
TERRELL        MOSUNNY   99  63  30 S15       29.96S HX 101
WAXAHACHIE     SUNNY     97  56  24 S16       29.96S HX  96
CLEBURNE       SUNNY     97  59  28 S9G16     29.96S HX  96
GRANBURY       SUNNY    102  55  20 S10       29.94R HX 100
$$

TXZ083>090-098>101-113>116-127>130-139>142-154-155-220000-
WESTERN NORTH TEXAS

CITY           SKY/WX    TMP DP  RH WIND       PRES   REMARKS
WICHITA FALLS  MOSUNNY   99  67  35 S24G32    29.88S HX 103
WF-KICKAPOO    MOSUNNY   99  63  30 SE23G29   29.90S HX 101
VERNON         SUNNY    103  56  21 S15G21    29.87F HX 102
ABILENE        SUNNY     96  64  34 S16G24    29.96S HX  98
ABILENE-DYESS  SUNNY     97  66  36 S18G24    29.94S HX 100
BRECKENRIDGE   MOSUNNY  101  57  23 S17G24    29.92S HX 100
GRAHAM         PTSUNNY   96  62  32 S9        29.89F HX  97
MINERAL WELLS  SUNNY     98  60  28 S15G22    29.92S HX  98
STEPHENVILLE   SUNNY     98  53  22 S14G20    29.98S HX  95
COMANCHE       SUNNY     99  52  20 S16G22    29.96S HX  96
BROWNWOOD      SUNNY     97  55  24 S15G25    29.96S HX  95
COLEMAN        SUNNY     94  59  31 S13G18    29.97S HX  93
BRADY          SUNNY     93  63  36 S13       29.99R HX  94
$$

TXZ143>147-156>162-174-175-220000-
CENTRAL TEXAS

CITY           SKY/WX    TMP DP  RH WIND       PRES   REMARKS
WACO           SUNNY     99  61  28 S18       29.95S HX  99
WACO-TSTC      SUNNY    100  57  23 S13       29.95S HX  99
WACO-MCGREGOR  SUNNY    100  59  25 S16G23    29.94S HX 100
HILLSBORO      SUNNY     99  58  25 SE16G23   29.95S HX  98
CORSICANA      MOSUNNY   99  64  31 S17       29.97S HX 101
MEXIA          SUNNY     96  67  37 SE13G18   29.97R HX 100
HEARNE           N/A     99  64  31 SE9       29.97S HX 102
CAMERON        SUNNY    100  62  28 S14G22    29.95F HX 101
TEMPLE         SUNNY    100  57  23 S16G26    29.95S HX  99
KILLEEN        SUNNY     99  59  26 S23       29.96S HX  98
KILLEEN-SKYLRK SUNNY    100  59  25 S12G26    29.96S HX 100
FORT HOOD      SUNNY    101  58  24 SE15G22   29.95F HX 100
GATESVILLE     SUNNY    100  57  23 S10G23    29.97S HAZE    HX  99
HAMILTON       SUNNY     99  53  21 S18G24    29.98R HX  96
LAMPASAS       SUNNY     98  59  27 S13G21    29.96S HX  98
$$

TXZ095>097-106>112-122>126-135>138-148>153-164>167-220000-
EAST TEXAS

CITY           SKY/WX    TMP DP  RH WIND       PRES   REMARKS
PARIS          SUNNY     93  70  46 S13G20    29.99S HX  99
SULPHUR SPRNGS SUNNY     96  63  33 S13G18    30.00S HX  97
CLARKSVILLE      N/A     95  67  39 S9        29.99S HX  99
MOUNT PLEASANT SUNNY     94  66  39 S8        30.01S HX  97
GILMER         SUNNY     95  70  43 S9        30.03R HX 101
MINEOLA        SUNNY     97  61  30 S7        30.00S HX  97
TYLER          MOSUNNY   96  67  38 S14       30.00S HX 100
LONGVIEW       MOSUNNY   94  69  44 S14       30.02R HX  99
MARSHALL       SUNNY     96  74  48 S6        30.05R HX 106
ATHENS         SUNNY     93  66  40 S14       29.99S HX  96
PALESTINE      SUNNY     95  68  40 S6        30.01S HX  99
JACKSONVILLE   SUNNY     93  68  43 SE9       30.05S HX  98
HENDERSON      SUNNY     94  68  42 S12G17    30.04S HX  98
NACOGDOCHES    SUNNY     91  70  49 S12G17    30.04S HX  97
LUFKIN         SUNNY     95  72  47 S12       30.04S HX 103
$$

SUPPLEMENTAL OBSERVATIONS (CENTRAL)

CITY           SKY/WX    TMP DP  RH WIND       PRES   REMARKS
LAKE TEXOMA      N/A     93  66  40 S9          N/A  HX  96
CADDO GRASSLND   N/A     95  64  36 S9          N/A  HX  97
PAT MAYSE LAKE   N/A     91  70  49 SE12        N/A  HX  97
GREENVILLE       N/A     97  63  32 S10         N/A  HX  98
CEDAR HILL       N/A    N/A N/A N/A S10         N/A
ATHENS           N/A     97  64  34 S10         N/A  HX  99
PALESTINE        N/A     95  64  36 S7          N/A  HX  97
LAKE LIMESTONE   N/A     99  64  32 S9G18       N/A  HX 101
MCGREGOR         N/A    100  55  22 S13G26      N/A  HX  99
TEMPLE           N/A     99  57  25 S16G25      N/A  HX  97
$$

SUPPLEMENTAL OBSERVATIONS (WEST)

CITY           SKY/WX    TMP DP  RH WIND       PRES   REMARKS
MILLERS CREEK    N/A    100  63  28 S17G24      N/A  HX 102
POSSUM KINGDOM   N/A     99  55  23 S13G22      N/A  HX  97
LBJ GRASSLAND    N/A     99  64  32 SE13        N/A  HX 101
GRANBURY         N/A    100  54  20 S16G23      N/A  HX  98
COMANCHE         N/A     99  55  23 S14G22      N/A  HX  97
HAMBY            N/A     97  63  32 S15G25      N/A  HX  98
IVIE RESERVOIR   N/A     97  61  30 S15G22      N/A  HX  97
COLORADO BEND    N/A     97  57  26 S10G23      N/A  HX  95
$$

SUPPLEMENTAL OBSERVATIONS (EAST)

CITY           SKY/WX    TMP DP  RH WIND       PRES   REMARKS
CLARKSVILLE      N/A     93  68  43 S9G17       N/A  HX  97
TEXARKANA        N/A     93  73  52 S3          N/A  HX 102
LINDEN           N/A     97  68  38 S3G12       N/A  HX 101
CADDO LAKE       N/A     93  70  46 S3          N/A  HX  99
GILMER           N/A     95  68  41 S7          N/A  HX  99
HENDERSON        N/A     93  70  46 S8G17       N/A  HX  99
LUFKIN           N/A     93  73  52 MISG        N/A  HX 102
N SABINE NF      N/A     93  73  52 MISG        N/A  HX 102
S SABINE NF      N/A     88  75  66 SE5         N/A  HX  97
$$

SUPPLEMENTAL OBSERVATIONS ARE A COLLECTION OF AUTOMATED INSTRUMENTS
THAT ARE MAINTAINED BY A VARIETY OF FEDERAL AND STATE AGENCIES.
CERTAIN ELEMENTS...SUCH AS HUMIDITY VALUES AND SUSTAINED WIND
SPEEDS...MAY BE APPROXIMATED.



USA.gov is the U.S. government's official web portal to all federal, state and local government web resources and services.